Location: Unnamed
(25.2826°S, 57.6099°W)
Time: 23:02:49
(UTC-04:00)

SRMSAT - Visible Passes

Search period start: 16 March 2026 00:00
Search period end: 26 March 2026 00:00
Orbit: 846 x 863 km, 20.0° (Epoch: 16 March)

Date Brightness Start Highest point End Pass type
(mag) Time Alt. Az. Time Alt. Az. Time Alt. Az.
16 Mar ? 03:35:34 12° NNE 03:35:34 12° NNE 03:36:17 10° NNE visible
16 Mar ? 19:57:54 10° NW 20:01:16 23° N 20:01:16 23° N visible
17 Mar ? 19:43:43 10° NW 19:48:24 28° N 19:48:24 28° N visible
18 Mar ? 19:29:34 10° NW 19:34:44 31° NNE 19:35:31 30° NNE visible
19 Mar ? 19:15:27 10° NW 19:20:43 33° NNE 19:22:35 27° NE visible
19 Mar ? 21:03:51 10° WNW 21:04:31 13° WNW 21:04:31 13° WNW visible
20 Mar ? 19:01:20 10° NW 19:06:44 36° NNE 19:09:37 23° ENE visible
20 Mar ? 20:49:51 10° WNW 20:51:33 19° WNW 20:51:33 19° WNW visible
21 Mar ? 18:47:16 10° NW 18:52:45 38° NNE 18:56:36 18° ENE visible
21 Mar ? 20:35:52 10° WNW 20:38:32 26° WNW 20:38:32 26° WNW visible
22 Mar ? 18:33:12 10° WNW 18:38:45 40° N 18:43:34 13° ENE visible
22 Mar ? 20:21:52 10° WNW 20:25:30 35° NW 20:25:30 35° NW visible
23 Mar ? 18:19:08 10° WNW 18:24:46 43° N 18:30:22 10° E visible
23 Mar ? 20:07:52 10° WNW 20:12:26 44° NW 20:12:26 44° NW visible
24 Mar ? 19:53:54 10° WNW 19:59:21 51° NNW 19:59:21 51° NNW visible
25 Mar ? 19:39:56 10° WNW 19:45:42 50° N 19:46:17 49° NNE visible
